• In Hungary
  • List of Countries
  • For 7 days
  • Water Temperature
  • Satellite Maps
  • Weather Map
  • News
  • Weather Widgets
  • user-avatar
    Login

    Hourly Weather Ioannina

    Today, 21 September, Friday

    Time Temperature Precipitation Wind Pressure Humidity
    00:00 +16°C° 0 mm 1 mps 689 mmHg 67%
    01:00 +16°C° 0 mm 1 mps 688 mmHg 66%
    02:00 +15°C° 0 mm 1 mps 688 mmHg 66%
    03:00 +15°C° 0 mm 1 mps 688 mmHg 65%
    04:00 +15°C° 0 mm 1 mps 688 mmHg 64%
    05:00 +16°C° 0 mm 1 mps 688 mmHg 60%
    06:00 +18°C° 0 mm 1 mps 689 mmHg 55%
    07:00 +18°C° 0 mm 2 mps 689 mmHg 51%
    08:00 +21°C° 0 mm 1 mps 689 mmHg 44%
    09:00 +23°C° 0 mm 1 mps 690 mmHg 38%
    10:00 +26°C° 0 mm 1 mps 690 mmHg 31%
    11:00 +26°C° 0 mm 1 mps 690 mmHg 30%
    12:00 +27°C° 0 mm 2 mps 690 mmHg 28%
    13:00 +27°C° 0 mm 2 mps 690 mmHg 29%
    14:00 +27°C° 0 mm 2 mps 690 mmHg 31%
    15:00 +26°C° 0 mm 2 mps 690 mmHg 33%
    16:00 +25°C° 0 mm 2 mps 689 mmHg 36%
    17:00 +23°C° 0 mm 1 mps 689 mmHg 43%
    18:00 +21°C° 0 mm 1 mps 689 mmHg 51%
    19:00 +19°C° 0 mm 1 mps 689 mmHg 59%
    20:00 +18°C° 0 mm 1 mps 689 mmHg 60%
    21:00 +18°C° 0 mm 1 mps 689 mmHg 60%
    22:00 +16°C° 0 mm 1 mps 689 mmHg 61%
    23:00 +16°C° 0 mm 1 mps 689 mmHg 61%

    Tomorrow, 22 September, Saturday

    Time Temperature Precipitation Wind Pressure Humidity
    00:00 +16°C° 0 mm 1 mps 689 mmHg 61%
    01:00 +15°C° 0 mm 1 mps 689 mmHg 61%
    02:00 +15°C° 0 mm 1 mps 689 mmHg 61%
    03:00 +15°C° 0 mm 1 mps 689 mmHg 61%
    04:00 +15°C° 0 mm 1 mps 688 mmHg 61%
    05:00 +16°C° 0 mm 1 mps 689 mmHg 58%
    06:00 +18°C° 0 mm 1 mps 689 mmHg 56%
    07:00 +19°C° 0 mm 1 mps 689 mmHg 53%
    08:00 +22°C° 0 mm 1 mps 690 mmHg 47%
    09:00 +24°C° 0 mm 1 mps 690 mmHg 41%
    10:00 +27°C° 0 mm 1 mps 691 mmHg 35%
    11:00 +27°C° 0 mm 1 mps 691 mmHg 34%
    12:00 +28°C° 0 mm 1 mps 691 mmHg 33%
    13:00 +28°C° 0 mm 2 mps 691 mmHg 31%
    14:00 +27°C° 0 mm 2 mps 690 mmHg 35%
    15:00 +27°C° 0 mm 2 mps 690 mmHg 38%
    16:00 +26°C° 0 mm 2 mps 690 mmHg 41%
    17:00 +24°C° 0 mm 2 mps 690 mmHg 49%
    18:00 +22°C° 0 mm 1 mps 690 mmHg 57%
    19:00 +20°C° 0 mm 1 mps 690 mmHg 66%
    20:00 +19°C° 0 mm 1 mps 690 mmHg 69%
    21:00 +19°C° 0 mm 1 mps 690 mmHg 72%
    22:00 +18°C° 0 mm 1 mps 690 mmHg 75%
    23:00 +18°C° 0 mm 1 mps 690 mmHg 75%

    Day after tomorrow, 23 September, Sunday

    Time Temperature Precipitation Wind Pressure Humidity
    00:00 +18°C° 0 mm 1 mps 690 mmHg 76%
    01:00 +18°C° 0 mm 1 mps 690 mmHg 76%
    02:00 +16°C° 0 mm 1 mps 690 mmHg 76%
    03:00 +16°C° 0 mm 1 mps 690 mmHg 75%
    04:00 +16°C° 0 mm 1 mps 690 mmHg 75%
    05:00 +18°C° 0 mm 1 mps 690 mmHg 70%
    06:00 +19°C° 0 mm 1 mps 691 mmHg 65%
    07:00 +20°C° 0 mm 1 mps 691 mmHg 60%
    08:00 +23°C° 0 mm 1 mps 692 mmHg 51%
    09:00 +26°C° 0 mm 1 mps 692 mmHg 42%
    10:00 +28°C° 0 mm 1 mps 693 mmHg 33%
    11:00 +29°C° 0 mm 1 mps 693 mmHg 32%
    12:00 +29°C° 0 mm 1 mps 693 mmHg 31%
    13:00 +30°C° 0 mm 2 mps 692 mmHg 30%
    14:00 +29°C° 0 mm 2 mps 692 mmHg 32%
    15:00 +28°C° 0 mm 2 mps 692 mmHg 34%
    16:00 +28°C° 0 mm 2 mps 691 mmHg 37%
    17:00 +26°C° 0 mm 1 mps 691 mmHg 44%
    18:00 +23°C° 0 mm 1 mps 691 mmHg 52%
    19:00 +21°C° 0 mm 1 mps 691 mmHg 60%
    20:00 +21°C° 0 mm 1 mps 691 mmHg 62%
    21:00 +20°C° 0 mm 1 mps 691 mmHg 64%
    22:00 +20°C° 0 mm 1 mps 691 mmHg 66%
    23:00 +19°C° 0 mm 1 mps 691 mmHg 67%

    24 September, Monday

    Time Temperature Precipitation Wind Pressure Humidity
    00:00 +19°C° 0 mm 1 mps 690 mmHg 69%
    01:00 +17°C° 0 mm 0 mps 690 mmHg 71%
    02:00 +16°C° 0 mm 0 mps 690 mmHg 72%
    03:00 +16°C° 0 mm 0 mps 689 mmHg 74%
    04:00 +16°C° 0 mm 0 mps 689 mmHg 76%
    05:00 +17°C° 0 mm 0 mps 689 mmHg 72%
    06:00 +18°C° 0 mm 0 mps 689 mmHg 68%
    07:00 +19°C° 0 mm 0 mps 689 mmHg 65%
    08:00 +23°C° 0 mm 1 mps 690 mmHg 55%
    09:00 +25°C° 0 mm 1 mps 690 mmHg 45%
    10:00 +27°C° 0 mm 1 mps 690 mmHg 36%
    11:00 +28°C° 0 mm 2 mps 690 mmHg 34%
    12:00 +29°C° 0 mm 2 mps 689 mmHg 32%
    13:00 +29°C° 0 mm 2 mps 689 mmHg 31%
    14:00 +28°C° 0 mm 2 mps 689 mmHg 34%
    15:00 +28°C° 0 mm 2 mps 688 mmHg 37%
    16:00 +27°C° 0 mm 2 mps 688 mmHg 41%
    17:00 +25°C° 0 mm 2 mps 687 mmHg 50%
    18:00 +22°C° 0 mm 1 mps 687 mmHg 59%
    19:00 +20°C° 0 mm 1 mps 687 mmHg 69%
    20:00 +20°C° 0 mm 1 mps 688 mmHg 70%
    21:00 +19°C° 0 mm 1 mps 688 mmHg 71%
    22:00 +19°C° 0 mm 1 mps 688 mmHg 73%
    23:00 +18°C° 0 mm 1 mps 688 mmHg 71%

    25 September, Tuesday

    Time Temperature Precipitation Wind Pressure Humidity
    00:00 +18°C° 0 mm 1 mps 688 mmHg 70%
    01:00 +16°C° 0 mm 1 mps 688 mmHg 69%
    02:00 +16°C° 0 mm 1 mps 688 mmHg 66%
    03:00 +15°C° 0 mm 2 mps 688 mmHg 64%
    04:00 +15°C° 0 mm 2 mps 688 mmHg 62%
    05:00 +15°C° 0 mm 2 mps 689 mmHg 58%
    06:00 +16°C° 0 mm 2 mps 689 mmHg 54%
    07:00 +16°C° 0 mm 2 mps 689 mmHg 50%
    08:00 +18°C° 0 mm 2 mps 690 mmHg 46%
    09:00 +20°C° 0 mm 2 mps 691 mmHg 42%
    10:00 +23°C° 0 mm 2 mps 691 mmHg 37%
    11:00 +23°C° 0 mm 2 mps 691 mmHg 37%
    12:00 +24°C° 0 mm 2 mps 691 mmHg 36%
    13:00 +25°C° 0 mm 2 mps 691 mmHg 35%
    14:00 +24°C° 0 mm 2 mps 691 mmHg 37%
    15:00 +22°C° 0 mm 3 mps 691 mmHg 39%
    16:00 +22°C° 0 mm 3 mps 691 mmHg 41%
    17:00 +20°C° 0 mm 3 mps 691 mmHg 45%
    18:00 +18°C° 0 mm 3 mps 691 mmHg 48%
    19:00 +16°C° 0 mm 2 mps 691 mmHg 52%
    20:00 +14°C° 0 mm 3 mps 691 mmHg 52%
    21:00 +13°C° 0 mm 3 mps 691 mmHg 52%
    22:00 +12°C° 0 mm 3 mps 691 mmHg 52%
    23:00 +11°C° 0 mm 3 mps 691 mmHg 51%

    26 September, Wednesday

    Time Temperature Precipitation Wind Pressure Humidity
    00:00 +11°C° 0 mm 3 mps 691 mmHg 50%
    01:00 +10°C° 0 mm 3 mps 691 mmHg 49%
    02:00 +10°C° 0 mm 3 mps 691 mmHg 49%
    03:00 +10°C° 0 mm 2 mps 691 mmHg 49%
    04:00 +9°C° 0 mm 2 mps 691 mmHg 48%
    05:00 +9°C° 0 mm 2 mps 691 mmHg 47%
    06:00 +10°C° 0 mm 2 mps 691 mmHg 45%
    07:00 +10°C° 0 mm 2 mps 692 mmHg 44%
    08:00 +14°C° 0 mm 2 mps 692 mmHg 40%
    09:00 +16°C° 0 mm 2 mps 692 mmHg 36%
    10:00 +18°C° 0 mm 2 mps 693 mmHg 32%
    11:00 +19°C° 0 mm 2 mps 692 mmHg 30%
    12:00 +20°C° 0 mm 2 mps 692 mmHg 28%
    13:00 +21°C° 0 mm 2 mps 692 mmHg 26%
    14:00 +21°C° 0 mm 2 mps 692 mmHg 27%
    15:00 +20°C° 0 mm 2 mps 691 mmHg 27%
    16:00 +20°C° 0 mm 2 mps 691 mmHg 27%
    17:00 +17°C° 0 mm 2 mps 691 mmHg 30%
    18:00 +15°C° 0 mm 2 mps 691 mmHg 33%
    19:00 +13°C° 0 mm 2 mps 690 mmHg 35%
    20:00 +12°C° 0 mm 2 mps 690 mmHg 34%
    21:00 +10°C° 0 mm 2 mps 690 mmHg 33%
    22:00 +9°C° 0 mm 3 mps 691 mmHg 31%
    23:00 +9°C° 0 mm 3 mps 691 mmHg 35%
    Show more